Cloud_Cover
0 0 0 0 0 0 5 4 5 5 2 5 100 100 95 100 93 98 99 100 100 100 100 100 89 100 32 5 0 4 0 1 0 0 3 0 0 0 0 0 0 2 25 0 0 0 0 0 0
5 0 0 3 0 2 4 4 5 1 0 0 92 100 86 83 91 99 84 100 100 100 100 98 90 23 74 4 2 0 0 0 0 26 7 1 0 9 0 0 0 0 0 0 0 0 0 0 0
5 1 0 0 0 0 5 5 2 4 0 1 9 100 100 100 94 91 100 94 100 100 52 21 5 2 4 0 1 0 0 0 0 0 0 0 0 4 0 0 0 0 0 4 3 0 0 0 0
97 5 1 0 0 0 1 5 5 1 0 2 0 5 100 49 84 30 10 100 94 98 100 93 21 5 5 4 0 0 2 0 0 0 0 5 0 0 3 0 0 0 8 0 0 0 0 0 0
100 97 7 0 3 0 0 3 5 4 5 0 0 0 14 96 40 5 5 5 21 5 58 100 100 24 5 25 5 6 5 4 4 5 5 0 1 0 0 0 0 0 1 21 4 0 0 0 2
100 99 72 5 0 0 0 0 0 4 5 0 0 0 4 4 57 8 5 8 22 20 18 30 100 63 5 5 25 58 27 5 5 5 5 1 2 1 0 4 5 4 0 1 2 0 5 0 0
100 80 95 51 5 2 2 1 0 0 0 5 5 0 22 7 5 1 12 43 100 100 100 100 100 100 100 63 81 100 98 95 99 70 6 5 4 1 5 16 25 5 5 4 5 75 5 4 0
100 80 96 73 6 5 5 5 2 0 0 0 1 4 2 25 62 18 5 5 48 100 100 100 100 26 31 67 91 98 32 97 97 100 100 100 91 100 100 100 100 100 100 100 91 7 0 0 0
100 99 97 97 35 5 5 5 5 4 3 0 0 0 0 0 5 95 11 0 0 2 36 65 77 99 55 14 32 41 12 12 56 89 100 99 100 72 23 38 64 97 94 82 5 5 17 0 0
93 100 100 100 100 87 35 5 5 5 5 2 0 0 0 0 0 5 10 5 4 5 0 0 2 2 10 33 50 68 5 1 4 5 3 11 18 18 68 22 9 11 6 5 5 25 5 3 0
100 100 100 100 100 55 5 5 5 3 5 0 0 0 0 1 5 5 1 21 5 5 5 5 4 1 2 19 59 92 64 23 7 0 27 6 57 89 95 95 41 8 4 3 2 12 14 5 14
19 100 71 5 3 14 8 5 4 4 5 0 0 5 2 0 0 5 5 0 5 4 4 5 5 30 35 42 48 2 54 97 77 58 83 100 100 100 100 100 93 6 6 1 0 0 1 9 37
6 78 79 5 2 5 86 94 9 11 1 5 4 3 4 1 1 4 0 0 5 16 39 49 18 100 100 50 29 5 2 14 98 87 100 100 99 100 100 100 100 71 80 72 66 88 11 5 5
100 11 81 9 5 0 11 100 100 82 0 0 5 5 8 38 18 5 2 5 5 87 79 100 90 75 57 87 21 0 13 17 51 28 24 81 82 60 44 71 63 90 75 76 76 99 22 5 5
93 21 100 75 0 0 4 5 9 91 5 2 0 5 5 5 5 5 5 5 5 4 4 6 74 98 97 77 73 97 19 73 38 43 48 50 58 60 60 51 76 100 85 57 45 13 97 40 26
15 16 1 11 6 0 0 0 0 3 5 5 3 5 5 5 5 5 5 5 5 5 5 4 68 91 49 93 100 98 100 100 100 100 87 29 39 46 89 4 5 9 24 23 62 53 44 47 100
5 0 80 8 0 0 0 0 0 0 0 0 0 0 1 0 0 0 0 0 1 4 2 2 4 11 68 88 80 60 74 92 63 63 40 24 5 5 26 5 5 5 5 32 8 5 61 33 18
0 0 0 0 0 0 0 0 0 0 0 0 0 0 0 0 0 0 0 1 4 5 0 4 0 4 25 25 30 80 44 5 5 5 56 99 98 99 100 30 26 84 95 87 21 24 93 96 68
0 0 0 0 0 0 0 0 0 0 0 0 0 0 0 0 0 0 0 0 0 0 5 5 0 0 0 0 0 0 4 5 5 87 93 14 5 44 28 11 31 58 87 98 100 100 100 100 100
0 0 0 0 0 0 0 0 0 0 0 1 2 5 2 2 0 0 0 0 0 0 0 0 0 0 0 0 0 0 0 0 0 0 0 5 63 61 76 89 100 100 100 100 94 92 100 100 99
28 36 58 41 4 3 2 3 4 19 97 90 87 57 25 18 5 4 1 0 0 0 0 0 0 0 0 0 0 0 0 0 0 0 0 0 0 0 0 0 0 0 0 4 3 7 38 100 100
100 100 90 21 5 5 6 5 86 83 66 80 79 38 84 27 5 5 0 0 0 0 0 0 0 0 0 0 1 5 4 0 0 0 0 0 0 0 0 0 0 0 0 0 0 1 6 61 100
58 64 36 65 62 39 44 5 5 40 91 22 6 5 5 4 1 0 0 0 0 0 0 0 0 0 0 0 5 5 5 5 5 3 0 0 0 0 0 0 0 0 0 0 0 0 0 11 62
0 0 0 0 0 0 0 0 1 2 3 3 0 0 0 0 0 0 0 0 0 0 0 0 0 0 0 0 0 0 0 0 0 0 0 0 0 0 0 0 0 0 0 0 0 0 0 10 17
0 0 0 0 0 0 0 0 0 0 0 0 0 0 0 0 0 0 0 0 0 0 0 0 0 0 0 0 0 0 0 0 0 0 0 0 0 0 0 0 0 0 0 0 0 0 0 0 0
0 0 0 0 0 0 0 0 0 0 0 0 0 0 0 0 0 0 0 0 0 0 0 0 0 0 0 0 0 0 0 0 0 0 0 0 0 0 0 0 0 0 0 0 0 0 0 0 0
0 0 0 0 0 0 0 0 0 0 0 0 0 0 0 0 0 0 0 0 0 0 0 0 0 0 0 0 0 0 0 0 0 0 0 0 0 0 0 0 0 0 0 0 0 0 0 0 0
0 0 0 0 0 0 0 0 0 0 0 0 0 0 0 0 1 0 0 1 0 0 0 4 5 0 0 0 0 0 0 0 0 0 0 0 0 0 0 0 0 0 0 0 0 0 0 0 0
0 0 0 0 0 0 0 0 0 0 0 0 0 2 99 100 74 54 11 31 40 15 5 13 24 0 0 0 0 0 0 0 0 0 0 0 0 0 0 0 0 0 0 0 2 0 0 1 51
0 0 0 0 0 0 2 1 0 0 0 0 0 0 26 100 97 61 6 82 83 56 5 5 5 0 0 0 0 0 0 0 0 0 0 0 0 0 6 23 4 0 0 17 100 98 98 100 100